User: anonymous   Login
Location: Unspecified
(0.0000°N, 0.0000°E)
Time: 00:48:13
(UTC+00:00)
Language:

ONEWEB-0255 - Orbit

View from above orbital plane
View from above orbital plane
View from above satellite
View from above satellite

Ground track
Ground track

The orbit is defined by the following mean orbital elements,

1 48973U          26145.24509475 +.00000000 +00000-0 +29525-3 0 00004
2 48973  87.9107 233.3350 0001820  98.9885 261.1452 13.16593412    08
Epoch (UTC): 25 May 2026 05:52:56
Eccentricity: 0.0001820
inclination: 87.9107°
perigee height: 1196 km
apogee height: 1199 km
right ascension of ascending node: 233.3350°
argument of perigee: 98.9885°
revolutions per day: 13.16593412
mean anomaly at epoch: 261.1452°

The dashed part of the orbit path shows where the satellite is in the earth's shadow,  

DLR